Weather History for Somerset, KY

Change the Weather History Date:

Sunday, December 22, 2013

  Actual Average Record
Temperature  
Mean Temperature 61 °F -  
Max Temperature 71 °F 43 °F 71 °F (2013)
Min Temperature 51 °F 25 °F 8 °F (2000)
Degree Days  
Heating Degree Days 4    
Growing Degree Days 11 (Base 50)    
Moisture  
Dew Point 52 °F    
Average Humidity 87    
Maximum Humidity 100    
Minimum Humidity 63    
Precipitation  
Precipitation 1.00 in - - ()
Sea Level Pressure  
Sea Level Pressure 29.91 in    
Wind  
Wind Speed 9 mph (SW)    
Max Wind Speed 23 mph    
Max Gust Speed 43 mph    
Visibility 9 miles    
Events Rain , Thunderstorm    
Averages and records for this station are not official NWS values.
T = Trace of Precipitation, MM = Missing Value Source: NWS Daily Summary

Daily Weather History Graph

Daily Weather History Graph

Search for Another Location

Airport:

Trip Planner

Search our weather history database for the weather conditions in past years. The results will help you decide how hot, cold, wet, or windy it might be!

Date:

Astronomy

Dec. 22, 2013 Rise Set
Actual Time 7:48 AM EST 5:25 PM EST
Civil Twilight 7:19 AM EST 5:54 PM EST
Nautical Twilight 6:47 AM EST 6:27 PM EST
Astronomical Twilight 6:15 AM EST 6:59 PM EST
Moon 10:30 PM EST (12/22) 10:50 AM EST (12/22)
Length of Visible Light 10h 35m
Length of Day
9h 37m
Waning Gibbous, 77% of the Moon is Illuminated
Dec 22
Waning Gibbous
Dec 25
Last Quarter
Jan 1
New
Jan 7
First Quarter
Jan 15
Full

Hourly Weather History & Observations

Time (EST) Temp. Dew Point Humidity Pressure Visibility Wind Dir Wind Speed Gust Speed Precip Events Conditions
12:15 AM 71.6 °F 59.0 °F 64% 29.74 in 10.0 mi SW 23.0 mph 29.9 mph N/A   Overcast
12:35 AM 60.8 °F 57.2 °F 88% 29.81 in 4.0 mi West 23.0 mph 42.6 mph 0.08 in Rain Rain
12:55 AM 59.0 °F 59.0 °F 100% 29.83 in 5.0 mi WSW 13.8 mph 20.7 mph 0.30 in Rain Heavy Rain
1:15 AM 59.0 °F 59.0 °F 100% 29.83 in 7.0 mi SW 9.2 mph - 0.10 in Rain Heavy Rain
1:35 AM 59.0 °F 59.0 °F 100% 29.81 in 7.0 mi South 6.9 mph - 0.16 in Rain , Thunderstorm Rain
1:55 AM 59.0 °F 59.0 °F 100% 29.78 in 10.0 mi SSW 5.8 mph - 0.19 in Rain Rain
2:15 AM 59.0 °F 59.0 °F 100% 29.82 in 7.0 mi South 6.9 mph - 0.05 in Rain Rain
2:35 AM 59.0 °F 59.0 °F 100% 29.78 in 5.0 mi South 3.5 mph - 0.12 in Rain Rain
2:55 AM 59.0 °F 59.0 °F 100% 29.80 in 10.0 mi South 6.9 mph - 0.14 in Rain Rain
3:15 AM 59.0 °F 59.0 °F 100% 29.80 in 7.0 mi South 4.6 mph - 0.03 in Rain Rain
3:35 AM 59.0 °F 57.2 °F 94% 29.83 in 7.0 mi South 8.1 mph - 0.09 in Rain Rain
3:55 AM 59.0 °F 57.2 °F 94% 29.81 in 7.0 mi South 5.8 mph - 0.02 in Rain Rain
4:15 AM 57.2 °F 57.2 °F 100% 29.81 in 10.0 mi South 4.6 mph - 0.03 in Rain Rain
4:35 AM 57.2 °F 57.2 °F 100% 29.83 in 7.0 mi South 8.1 mph - 0.11 in Rain Heavy Rain
4:55 AM 57.2 °F 57.2 °F 100% 29.84 in 7.0 mi South 5.8 mph - 0.18 in Rain Rain
5:15 AM 57.2 °F 55.4 °F 94% 29.83 in 10.0 mi South 6.9 mph - 0.04 in Rain Rain
5:35 AM 55.4 °F 55.4 °F 100% 29.81 in 10.0 mi SSE 9.2 mph - 0.07 in Rain Light Rain
5:55 AM 55.4 °F 55.4 °F 100% 29.78 in 10.0 mi SSE 8.1 mph - 0.07 in Rain Light Rain
6:15 AM 57.2 °F 55.4 °F 94% 29.84 in 10.0 mi SW 10.4 mph - 0.01 in Rain Light Rain
6:35 AM 57.2 °F 55.4 °F 94% 29.83 in 10.0 mi South 8.1 mph - 0.01 in Rain Light Rain
6:55 AM 55.4 °F 55.4 °F 100% 29.83 in 10.0 mi SSW 8.1 mph - 0.01 in Rain Light Rain
7:15 AM 55.4 °F 55.4 °F 100% 29.83 in 10.0 mi South 5.8 mph - N/A   Overcast
7:35 AM 55.4 °F 55.4 °F 100% 29.87 in 10.0 mi SW 4.6 mph - N/A   Overcast
7:55 AM 57.2 °F 53.6 °F 88% 29.87 in 10.0 mi South 6.9 mph - N/A   Overcast
8:15 AM 57.2 °F 53.6 °F 88% 29.87 in 10.0 mi South 4.6 mph - N/A   Overcast
8:35 AM 57.2 °F 53.6 °F 88% 29.87 in 10.0 mi South 5.8 mph - N/A   Overcast
8:55 AM 57.2 °F 53.6 °F 88% 29.89 in 10.0 mi South 6.9 mph - N/A   Overcast
9:15 AM 57.2 °F 53.6 °F 88% 29.89 in 10.0 mi South 3.5 mph - N/A   Overcast
9:35 AM 57.2 °F 53.6 °F 88% 29.91 in 10.0 mi South 6.9 mph - N/A   Overcast
9:55 AM 57.2 °F 53.6 °F 88% 29.93 in 10.0 mi SSW 5.8 mph - N/A   Overcast
10:15 AM 57.2 °F 53.6 °F 88% 29.93 in 10.0 mi South 6.9 mph - N/A   Overcast
10:35 AM 57.2 °F 53.6 °F 88% 29.93 in 10.0 mi South 9.2 mph - N/A   Overcast
10:55 AM 57.2 °F 53.6 °F 88% 29.96 in 10.0 mi WSW 5.8 mph - N/A   Overcast
11:15 AM 55.4 °F 53.6 °F 94% 29.96 in 10.0 mi West 9.2 mph - N/A Rain Light Rain
11:35 AM 55.4 °F 53.6 °F 94% 29.96 in 10.0 mi West 5.8 mph - 0.01 in Rain Light Rain
11:55 AM 55.4 °F 53.6 °F 94% 29.96 in 10.0 mi West 8.1 mph - 0.02 in Rain Light Rain
12:15 PM 55.4 °F 51.8 °F 88% 29.95 in 10.0 mi WSW 9.2 mph - N/A Rain Light Rain
12:35 PM 55.4 °F 51.8 °F 88% 29.95 in 10.0 mi West 6.9 mph - N/A   Overcast
12:55 PM 55.4 °F 51.8 °F 88% 29.93 in 10.0 mi WSW 6.9 mph - N/A   Light Drizzle
1:15 PM 55.4 °F 51.8 °F 88% 29.93 in 10.0 mi WSW 10.4 mph - N/A Rain Rain
1:35 PM 55.4 °F 50.0 °F 82% 29.94 in 10.0 mi WSW 10.4 mph - N/A   Overcast
1:55 PM 57.2 °F 50.0 °F 77% 29.93 in 10.0 mi WSW 8.1 mph - N/A   Overcast
2:15 PM 57.2 °F 48.2 °F 72% 29.93 in 10.0 mi WSW 6.9 mph - N/A   Overcast
2:35 PM 57.2 °F 46.4 °F 67% 29.94 in 10.0 mi WSW 9.2 mph - N/A   Overcast
2:55 PM 57.2 °F 44.6 °F 63% 29.93 in 10.0 mi WSW 6.9 mph - N/A   Overcast
3:15 PM 55.4 °F 44.6 °F 67% 29.95 in 10.0 mi West 9.2 mph - N/A   Overcast
3:35 PM 55.4 °F 42.8 °F 63% 29.92 in 10.0 mi SSW 5.8 mph - N/A   Mostly Cloudy
3:55 PM 55.4 °F 44.6 °F 67% 29.94 in 10.0 mi WSW 5.8 mph - N/A   Overcast
4:15 PM 55.4 °F 44.6 °F 67% 29.95 in 10.0 mi West 4.6 mph - N/A   Overcast
4:35 PM 55.4 °F 44.6 °F 67% 29.95 in 10.0 mi WSW 4.6 mph - N/A   Overcast
4:55 PM 55.4 °F 44.6 °F 67% 29.96 in 10.0 mi WSW 3.5 mph - N/A   Overcast
5:15 PM 55.4 °F 44.6 °F 67% 29.94 in 10.0 mi Calm Calm - N/A   Overcast
5:35 PM 55.4 °F 44.6 °F 67% 29.96 in 10.0 mi Calm Calm - N/A   Overcast
5:55 PM 55.4 °F 44.6 °F 67% 29.97 in 10.0 mi Calm Calm - N/A   Overcast
6:15 PM 53.6 °F 46.4 °F 77% 29.98 in 10.0 mi Calm Calm - N/A   Overcast
6:35 PM 53.6 °F 46.4 °F 77% 29.98 in 10.0 mi Calm Calm - N/A   Overcast
6:55 PM 53.6 °F 46.4 °F 77% 30.00 in 10.0 mi West 4.6 mph - N/A   Light Drizzle
7:15 PM 53.6 °F 46.4 °F 77% 30.01 in 10.0 mi West 6.9 mph - N/A Rain Rain
7:35 PM 53.6 °F 48.2 °F 82% 30.00 in 10.0 mi Calm Calm - N/A   Overcast
7:55 PM 53.6 °F 48.2 °F 82% 30.00 in 10.0 mi Calm Calm - N/A   Overcast
8:15 PM 53.6 °F 48.2 °F 82% 29.99 in 10.0 mi Calm Calm - N/A   Overcast
8:35 PM 53.6 °F 48.2 °F 82% 29.98 in 10.0 mi Calm Calm - N/A   Light Drizzle
8:55 PM 51.8 °F 50.0 °F 94% 29.99 in 10.0 mi Calm Calm - N/A Rain Light Rain
9:15 PM 53.6 °F 51.8 °F 94% 30.02 in 10.0 mi West 5.8 mph - N/A   Overcast
9:35 PM 53.6 °F 51.8 °F 94% 29.99 in 10.0 mi Calm Calm - N/A   Overcast
9:55 PM 51.8 °F 51.8 °F 100% 29.99 in 10.0 mi Calm Calm - N/A   Overcast
10:15 PM 51.8 °F 51.8 °F 100% 30.01 in 10.0 mi Calm Calm - N/A   Overcast
10:35 PM 51.8 °F 51.8 °F 100% 30.02 in 10.0 mi Calm Calm - N/A   Overcast
10:55 PM 51.8 °F 50.0 °F 94% 30.04 in 10.0 mi West 4.6 mph - N/A   Overcast
11:15 PM 51.8 °F 50.0 °F 94% 30.04 in 10.0 mi Calm Calm - N/A   Overcast
11:35 PM 51.8 °F 50.0 °F 94% 30.05 in 10.0 mi Calm Calm - N/A   Overcast
11:55 PM 51.8 °F 50.0 °F 94% 30.05 in 10.0 mi Calm Calm - N/A   Overcast